Simultaneous Nadir Overpasses (SNOs) Predictions

Prediction of SNOs over PacNW region [( 10.00, 139.50) to ( 22.70, 165.60)] between AQUA and NPP Satellites:

Table of predicted SNOs over PacNW region for the next 30.0 days since TLE Epoch: 3/5/2022
Index Date (AQUA) Time (AQUA) AQUA Lat,Lon Date (NPP) Time (NPP) NPP Lat,Lon Distance(km) Time Diff (sec)
1 03/06/2022 03:31:21 22.68, 147.94 03/06/2022 03:27:51 23.78, 145.50 277.74 210
2 03/11/2022 15:58:41 22.62, 148.01 03/11/2022 16:01:58 23.41, 144.61 359.08 197
3 03/14/2022 02:41:31 22.65, 160.43 03/14/2022 02:38:02 27.04, 157.34 579.62 209
4 03/19/2022 15:08:49 22.63, 160.51 03/19/2022 15:11:14 23.34, 157.28 340.04 145
5 03/22/2022 03:30:31 22.65, 148.21 03/22/2022 03:27:23 22.15, 145.90 243.43 188
6 03/27/2022 15:57:48 22.63, 148.29 03/27/2022 16:01:17 25.80, 145.22 471.02 209
7 03/30/2022 02:40:36 22.65, 160.72 03/30/2022 02:37:07 23.86, 158.16 294.54 209
